{"data":{"norad_id":63307,"epoch":"2026-09-20T18:40:11.424000Z","epoch_age_seconds":134759,"freshness":"FRESH","line1":"1 63307U 25057A   26263.77791000  .00138324  00000+0  10617-2 0  9995","line2":"2 63307  42.9999 168.2727 0001743 255.5207 104.5467 15.70883007 87862","mean_motion":15.70883007,"eccentricity":0.0001743,"inclination_deg":42.9999,"raan_deg":168.2727,"arg_perigee_deg":255.5207,"mean_anomaly_deg":104.5467,"bstar":0.0010617,"rev_number":8786,"period_min":91.668188756465,"perigee_km":355.19831737459,"apogee_km":357.54596726161,"semimajor_km":6734.5091423181,"source":"CELESTRAK","updated_at":"2026-09-21T09:00:34.966904Z"}}